軌道要素
Epoch 2023 Feb. 25.0 TT = JDT 2460000.5
T 2023 Feb. 11.07819 TT Rudenko
q 3.2419372 (2000.0) P Q
z +0.0004056 Peri. 270.92241 -0.36145118 +0.81167420
+/-0.0000027 Node 323.68277 -0.16797280 -0.54074978
e 0.9986852 Incl. 50.78150 -0.91713586 -0.22084987
>From 409 observations 2020 Dec. 22-2023 Feb. 16, mean residual 0".5.
|